Regional Weather Roundup
Issued by NWS Raleigh/Durham, NC

Home | Current Version | Previous Version | Text Only | Print | Product List | Glossary On
Versions: 1 2 3 4 5 6 7 8 9 10 11 12 13 14 15 16 17 18 19 20 21 22 23 24 25 26 27 28 29 30 31 32 33 34 35 36 37 38 39 40 41 42 43 44 45 46 47 48 49 50
000
ASUS42 KRAH 260310
RWRRAH
NORTH CAROLINA WEATHER ROUNDUP
NATIONAL WEATHER SERVICE RALEIGH NC
1000 PM EST SUN JAN 25 2015

NOTE: "FAIR" INDICATES FEW OR NO CLOUDS BELOW 12,000 FEET WITH NO
SIGNIFICANT WEATHER AND/OR OBSTRUCTIONS TO VISIBILITY.

NCZ001-053-055-056-065-067-260400-
WESTERN NORTH CAROLINA

CITY           SKY/WX    TMP DP  RH WIND       PRES   REMARKS
ASHEVILLE      CLOUDY    43  31  62 S6        29.74F
JEFFERSON      CLOUDY    39  26  61 S6        29.71F WCI  34
MORGANTON      CLOUDY    50  30  46 SW5G10    29.80F
HICKORY        CLOUDY    48  29  47 S7        29.76F
RUTHERFORDTON  CLOUDY    48  30  50 S7        29.77F
MOUNT AIRY     CLOUDY    47  33  56 S5        29.78S
BOONE          CLOUDY    38  30  73 SW3       29.73F
$$

NCZ021-022-025-041-071-084-088-260400-
CENTRAL NORTH CAROLINA

CITY           SKY/WX    TMP DP  RH WIND       PRES   REMARKS
CHARLOTTE      CLOUDY    48  31  51 S6        29.79S
GREENSBORO     CLOUDY    45  33  63 S12       29.77F
WINSTON-SALEM  CLOUDY    46  32  58 S6        29.79S
RALEIGH-DURHAM CLOUDY    44  33  65 S6        29.83S
FORT BRAGG     CLEAR     44  33  67 S1        29.84S
FAYETTEVILLE   CLEAR     42  33  70 S6        29.84F
BURLINGTON     MOCLDY    47  31  53 S9G17     29.80F
LAURINBURG     MOCLDY    43  36  76 S7        29.85R
$$

NCZ011-015-027-028-043-044-047-080-103-260400-
NORTHEASTERN NORTH CAROLINA

CITY           SKY/WX    TMP DP  RH WIND       PRES   REMARKS
ROCKY MT-WILSO PTCLDY    41  35  79 S5        29.86S
GREENVILLE     PTCLDY    37  34  87 CALM      29.90S
WASHINGTON     CLEAR     36  33  88 SE3       29.88F
ELIZABETH CITY CLEAR     40  33  76 SE3       29.89F
MANTEO         CLEAR     36  34  93 CALM      29.91F
CAPE HATTERAS  CLEAR     52  41  66 W6        29.89F
$$

NCZ078-087-090-091-093-098-101-260400-
SOUTHEASTERN NORTH CAROLINA

CITY           SKY/WX    TMP DP  RH WIND       PRES   REMARKS
LUMBERTON      MOCLDY    42  36  79 SE6       29.84F
GOLDSBORO      CLEAR     37  36  98 SE2       29.84F
KINSTON        CLEAR     37  35  92 CALM      29.87F
KENANSVILLE    CLEAR     35  34  96 CALM      29.87S
NEW BERN       CLEAR     37  32  82 CALM      29.89S
CHERRY POINT   CLEAR     37  34  89 CALM      29.88F
BEAUFORT       CLEAR     39  37  92 CALM      29.88F
JACKSONVILLE   CLEAR     38  36  92 CALM      29.86F
WILMINGTON     CLEAR     38  36  92 E3        29.85F
$$



USA.gov is the U.S. government's official web portal to all federal, state and local government web resources and services.